Location: Browne Barr
(41.2080°N, 111.9480°W)
Time: 07:08:42
(UTC+00:00)

X-37B - Pass Details

Date: 02 August 2021
Orbit: 381 x 393 km, 45.0° (Epoch: 29 August)

Event Time Altitude Azimuth Distance (km) Brightness Sun altitude
Exits shadow 10:17:15 26° 123° (ESE) 800 2.2 -20.1°
Drops below altitude 10° 10:19:20 10° 86° (E) 1,395 4.0 -19.8°
Sets 10:21:33 0° 74° (ENE) 2,252 5.4 -19.5°
